Time,TemperatureF,DewpointF,PressureIn,WindDirection,WindDirectionDegrees,WindSpeedMPH,WindSpeedGustMPH,Humidity,HourlyPrecipIn,Conditions,Clouds,dailyrainin,SoftwareType,DateUTC
2011-07-06 00:03:00,74.8,50.8,30.06,WNW,292,0.0,0.0,43,0.00,,,0.00,open2300-1.11,2011-07-06 06:03:00,
2011-07-06 00:13:00,74.7,50.6,30.06,WNW,292,0.0,0.0,43,0.00,,,0.00,open2300-1.11,2011-07-06 06:13:00,
2011-07-06 00:23:00,74.3,50.3,30.05,NW,315,0.0,0.0,43,0.00,,,0.00,open2300-1.11,2011-07-06 06:23:00,
2011-07-06 00:33:00,74.1,50.7,30.05,NW,315,0.0,0.0,44,0.00,,,0.00,open2300-1.11,2011-07-06 06:33:00,
2011-07-06 00:43:00,73.9,50.5,30.05,NW,315,0.0,0.0,44,0.00,,,0.00,open2300-1.11,2011-07-06 06:43:00,
2011-07-06 00:53:00,73.6,50.8,30.04,NW,315,0.0,0.0,45,0.00,,,0.00,open2300-1.11,2011-07-06 06:53:00,
2011-07-06 01:03:00,73.4,50.0,30.04,NW,315,0.0,0.0,44,0.00,,,0.00,open2300-1.11,2011-07-06 07:03:00,
2011-07-06 01:13:00,72.9,50.1,30.04,NW,315,0.0,0.0,45,0.00,,,0.00,open2300-1.11,2011-07-06 07:13:00,
2011-07-06 01:23:00,72.3,49.7,30.03,NW,315,0.0,0.0,45,0.00,,,0.00,open2300-1.11,2011-07-06 07:23:00,
2011-07-06 01:33:00,72.1,49.5,30.03,NW,315,0.0,0.0,45,0.00,,,0.00,open2300-1.11,2011-07-06 07:33:00,
2011-07-06 01:43:00,71.4,49.4,30.03,NW,315,0.0,0.0,46,0.00,,,0.00,open2300-1.11,2011-07-06 07:43:00,
2011-07-06 01:53:00,71.2,49.9,30.03,NW,315,0.0,0.0,47,0.00,,,0.00,open2300-1.11,2011-07-06 07:53:00,
2011-07-06 02:03:00,70.9,49.5,30.03,ENE,67,0.0,2.2,47,0.00,,,0.00,open2300-1.11,2011-07-06 08:03:00,
2011-07-06 02:13:00,70.9,50.1,30.03,ENE,67,0.0,0.0,48,0.00,,,0.00,open2300-1.11,2011-07-06 08:13:00,
2011-07-06 02:23:00,70.9,50.7,30.03,East,90,0.0,2.7,49,0.00,,,0.00,open2300-1.11,2011-07-06 08:23:00,
2011-07-06 02:33:00,70.9,51.3,30.02,East,90,0.0,2.0,50,0.00,,,0.00,open2300-1.11,2011-07-06 08:33:00,
2011-07-06 02:43:00,70.9,51.3,30.02,ESE,112,0.0,0.0,50,0.00,,,0.00,open2300-1.11,2011-07-06 08:43:00,
2011-07-06 02:53:00,70.9,51.3,30.03,ESE,112,0.0,1.8,50,0.00,,,0.00,open2300-1.11,2011-07-06 08:53:00,
2011-07-06 03:03:00,70.7,51.2,30.03,East,90,0.0,0.0,50,0.00,,,0.00,open2300-1.11,2011-07-06 09:03:00,
2011-07-06 03:13:00,70.7,51.7,30.03,East,90,0.0,2.7,51,0.00,,,0.00,open2300-1.11,2011-07-06 09:13:00,
2011-07-06 03:23:00,70.7,51.7,30.03,ENE,67,0.0,2.7,51,0.00,,,0.00,open2300-1.11,2011-07-06 09:23:00,
2011-07-06 03:33:00,70.5,51.5,30.03,East,90,0.0,0.0,51,0.00,,,0.00,open2300-1.11,2011-07-06 09:33:00,
2011-07-06 03:43:00,70.5,51.5,30.02,ESE,112,0.0,0.0,51,0.00,,,0.00,open2300-1.11,2011-07-06 09:43:00,
2011-07-06 03:53:00,70.5,51.5,30.02,ENE,67,0.0,0.0,51,0.00,,,0.00,open2300-1.11,2011-07-06 09:53:00,
2011-07-06 04:03:00,70.3,51.3,30.02,ESE,112,0.0,0.0,51,0.00,,,0.00,open2300-1.11,2011-07-06 10:03:00,
2011-07-06 04:13:00,70.3,51.3,30.02,ENE,67,0.0,4.0,51,0.00,,,0.00,open2300-1.11,2011-07-06 10:13:00,
2011-07-06 04:23:00,70.0,51.0,30.02,ENE,67,0.0,0.0,51,0.00,,,0.00,open2300-1.11,2011-07-06 10:23:00,
2011-07-06 04:33:00,69.8,51.4,30.02,NE,45,2.7,3.6,52,0.00,,,0.00,open2300-1.11,2011-07-06 10:33:00,
2011-07-06 04:43:00,69.6,51.2,30.02,East,90,1.8,5.8,52,0.00,,,0.00,open2300-1.11,2011-07-06 10:43:00,
2011-07-06 04:53:00,69.6,51.7,30.01,SSE,157,0.0,5.4,53,0.00,,,0.00,open2300-1.11,2011-07-06 10:53:00,
2011-07-06 05:03:00,69.6,51.7,30.02,SSE,157,5.6,5.6,53,0.00,,,0.00,open2300-1.11,2011-07-06 11:03:00,
2011-07-06 05:13:00,69.4,51.5,30.02,SE,135,1.6,5.6,53,0.00,,,0.00,open2300-1.11,2011-07-06 11:13:00,
2011-07-06 05:23:00,69.6,51.7,30.02,ESE,112,0.0,4.0,53,0.00,,,0.00,open2300-1.11,2011-07-06 11:23:00,
2011-07-06 05:33:00,69.6,51.7,30.02,ESE,112,0.0,2.5,53,0.00,,,0.00,open2300-1.11,2011-07-06 11:33:00,
2011-07-06 05:43:00,69.6,51.7,30.02,SSE,157,0.0,2.2,53,0.00,,,0.00,open2300-1.11,2011-07-06 11:43:00,
2011-07-06 05:53:00,69.6,51.7,30.03,East,90,0.0,0.0,53,0.00,,,0.00,open2300-1.11,2011-07-06 11:53:00,
2011-07-06 06:03:00,69.6,51.7,30.04,ENE,67,0.0,0.0,53,0.00,,,0.00,open2300-1.11,2011-07-06 12:03:00,
2011-07-06 06:13:00,69.4,51.5,30.04,East,90,0.0,0.0,53,0.00,,,0.00,open2300-1.11,2011-07-06 12:13:00,
2011-07-06 06:23:00,69.4,51.5,30.04,SE,135,0.0,4.0,53,0.00,,,0.00,open2300-1.11,2011-07-06 12:23:00,
2011-07-06 06:33:00,69.3,51.4,30.04,ENE,67,0.0,0.0,53,0.00,,,0.00,open2300-1.11,2011-07-06 12:33:00,
2011-07-06 06:43:00,69.1,51.2,30.06,ENE,67,0.0,0.0,53,0.00,,,0.00,open2300-1.11,2011-07-06 12:43:00,
2011-07-06 06:53:00,69.3,51.8,30.06,ENE,67,0.0,0.0,54,0.00,,,0.00,open2300-1.11,2011-07-06 12:53:00,
2011-07-06 07:03:00,69.3,52.4,30.06,East,90,0.0,0.0,55,0.00,,,0.00,open2300-1.11,2011-07-06 13:03:00,
2011-07-06 07:13:00,68.9,52.5,30.06,SE,135,0.0,0.0,56,0.00,,,0.00,open2300-1.11,2011-07-06 13:13:00,
2011-07-06 07:23:00,69.1,52.2,30.07,SE,135,0.0,0.0,55,0.00,,,0.00,open2300-1.11,2011-07-06 13:23:00,
2011-07-06 07:33:00,69.6,52.7,30.07,SE,135,0.0,0.0,55,0.00,,,0.00,open2300-1.11,2011-07-06 13:33:00,
2011-07-06 07:43:00,69.6,52.7,30.07,SE,135,0.0,0.0,55,0.00,,,0.00,open2300-1.11,2011-07-06 13:43:00,
2011-07-06 07:53:00,70.0,53.0,30.07,ESE,112,0.0,0.0,55,0.00,,,0.00,open2300-1.11,2011-07-06 13:53:00,
2011-07-06 08:03:00,70.2,52.7,30.08,ESE,112,0.0,0.0,54,0.00,,,0.00,open2300-1.11,2011-07-06 14:03:00,
2011-07-06 08:13:00,70.5,53.0,30.08,ESE,112,0.0,0.0,54,0.00,,,0.00,open2300-1.11,2011-07-06 14:13:00,
2011-07-06 08:23:00,71.2,54.2,30.08,ESE,112,0.0,0.0,55,0.00,,,0.00,open2300-1.11,2011-07-06 14:23:00,
2011-07-06 08:33:00,71.6,54.5,30.07,ESE,112,0.0,0.0,55,0.00,,,0.00,open2300-1.11,2011-07-06 14:33:00,
2011-07-06 08:43:00,71.8,54.2,30.08,ESE,112,0.0,0.0,54,0.00,,,0.00,open2300-1.11,2011-07-06 14:43:00,
2011-07-06 08:53:00,72.1,54.0,30.08,ESE,112,0.0,0.0,53,0.00,,,0.00,open2300-1.11,2011-07-06 14:53:00,
2011-07-06 09:03:00,72.3,54.1,30.08,ESE,112,0.0,0.0,53,0.00,,,0.00,open2300-1.11,2011-07-06 15:03:00,
2011-07-06 09:13:00,72.7,54.0,30.08,ESE,112,0.0,0.0,52,0.00,,,0.00,open2300-1.11,2011-07-06 15:13:00,
2011-07-06 09:23:00,73.4,53.6,30.07,ESE,112,0.0,0.0,50,0.00,,,0.00,open2300-1.11,2011-07-06 15:23:00,
2011-07-06 09:33:00,74.3,53.9,30.07,ESE,112,0.0,0.0,49,0.00,,,0.00,open2300-1.11,2011-07-06 15:33:00,
2011-07-06 09:43:00,75.0,54.0,30.07,ESE,112,0.0,0.0,48,0.00,,,0.00,open2300-1.11,2011-07-06 15:43:00,
2011-07-06 09:53:00,75.9,53.6,30.07,ESE,112,0.0,0.0,46,0.00,,,0.00,open2300-1.11,2011-07-06 15:53:00,
2011-07-06 10:03:00,77.2,53.5,30.07,South,180,0.0,0.0,44,0.00,,,0.00,open2300-1.11,2011-07-06 16:03:00,
2011-07-06 10:13:00,77.9,53.5,30.06,SSW,202,0.0,0.0,43,0.00,,,0.00,open2300-1.11,2011-07-06 16:13:00,
2011-07-06 10:23:00,78.6,53.6,30.06,South,180,0.0,0.0,42,0.00,,,0.00,open2300-1.11,2011-07-06 16:23:00,
2011-07-06 10:33:00,79.5,53.8,30.06,SSE,157,0.0,0.0,41,0.00,,,0.00,open2300-1.11,2011-07-06 16:33:00,
2011-07-06 10:43:00,80.2,53.0,30.05,SSE,157,0.0,0.0,39,0.00,,,0.00,open2300-1.11,2011-07-06 16:43:00,
2011-07-06 10:53:00,80.8,53.5,30.06,South,180,0.0,0.7,39,0.00,,,0.00,open2300-1.11,2011-07-06 16:53:00,
2011-07-06 11:03:00,81.5,53.4,30.06,East,90,0.0,0.0,38,0.00,,,0.00,open2300-1.11,2011-07-06 17:03:00,
2011-07-06 11:13:00,82.0,53.1,30.06,ENE,67,0.0,0.0,37,0.00,,,0.00,open2300-1.11,2011-07-06 17:13:00,
2011-07-06 11:23:00,82.8,53.7,30.06,SSE,157,0.0,0.0,37,0.00,,,0.00,open2300-1.11,2011-07-06 17:23:00,
2011-07-06 11:33:00,83.5,54.4,30.05,NNE,22,0.0,0.0,37,0.00,,,0.00,open2300-1.11,2011-07-06 17:33:00,
2011-07-06 11:43:00,84.2,55.0,30.05,North,0,0.0,0.0,37,0.00,,,0.00,open2300-1.11,2011-07-06 17:43:00,
2011-07-06 11:53:00,84.9,54.1,30.05,NW,315,0.0,0.4,35,0.00,,,0.00,open2300-1.11,2011-07-06 17:53:00,
2011-07-06 12:03:00,85.8,54.9,30.04,NW,315,0.0,2.0,35,0.00,,,0.00,open2300-1.11,2011-07-06 18:03:00,
2011-07-06 12:13:00,86.4,54.5,30.04,ENE,67,0.0,0.0,34,0.00,,,0.00,open2300-1.11,2011-07-06 18:13:00,
2011-07-06 12:23:00,87.1,55.2,30.04,West,270,0.0,0.0,34,0.00,,,0.00,open2300-1.11,2011-07-06 18:23:00,
2011-07-06 12:33:00,88.0,55.1,30.04,West,270,0.0,4.7,33,0.00,,,0.00,open2300-1.11,2011-07-06 18:33:00,
2011-07-06 12:43:00,88.5,54.8,30.04,SW,225,1.6,3.1,32,0.00,,,0.00,open2300-1.11,2011-07-06 18:43:00,
2011-07-06 12:53:00,89.2,55.4,30.04,West,270,0.0,1.6,32,0.00,,,0.00,open2300-1.11,2011-07-06 18:53:00,
2011-07-06 13:03:00,89.8,55.1,30.03,WSW,247,0.0,4.0,31,0.00,,,0.00,open2300-1.11,2011-07-06 19:03:00,
2011-07-06 13:13:00,90.7,55.1,30.03,WNW,292,4.0,4.0,30,0.00,,,0.00,open2300-1.11,2011-07-06 19:13:00,
2011-07-06 13:23:00,91.0,55.4,30.02,WSW,247,0.0,4.0,30,0.00,,,0.00,open2300-1.11,2011-07-06 19:23:00,
2011-07-06 13:33:00,91.2,54.5,30.02,West,270,1.1,2.0,29,0.00,,,0.00,open2300-1.11,2011-07-06 19:33:00,
2011-07-06 13:43:00,91.4,53.6,30.02,WNW,292,0.0,1.1,28,0.00,,,0.00,open2300-1.11,2011-07-06 19:43:00,
2011-07-06 13:53:00,91.8,52.8,30.01,NNW,337,0.0,1.1,27,0.00,,,0.00,open2300-1.11,2011-07-06 19:53:00,
2011-07-06 14:03:00,92.1,53.0,30.00,NW,315,2.9,4.5,27,0.00,,,0.00,open2300-1.11,2011-07-06 20:03:00,
2011-07-06 14:13:00,92.5,53.3,30.00,West,270,0.0,2.9,27,0.00,,,0.00,open2300-1.11,2011-07-06 20:13:00,
2011-07-06 14:23:00,92.8,52.5,29.99,WSW,247,1.6,3.6,26,0.00,,,0.00,open2300-1.11,2011-07-06 20:23:00,
2011-07-06 14:33:00,93.4,53.0,29.99,WNW,292,0.0,1.6,26,0.00,,,0.00,open2300-1.11,2011-07-06 20:33:00,
2011-07-06 14:43:00,93.7,53.3,29.99,NNW,337,0.0,0.0,26,0.00,,,0.00,open2300-1.11,2011-07-06 20:43:00,
2011-07-06 14:53:00,93.9,52.3,29.99,SSW,202,0.7,2.0,25,0.00,,,0.00,open2300-1.11,2011-07-06 20:53:00,
2011-07-06 15:03:00,94.3,51.5,29.98,NNE,22,0.0,5.8,24,0.00,,,0.00,open2300-1.11,2011-07-06 21:03:00,
2011-07-06 15:13:00,94.6,51.8,29.99,WNW,292,0.0,0.0,24,0.00,,,0.00,open2300-1.11,2011-07-06 21:13:00,
2011-07-06 15:23:00,94.6,51.8,29.98,NW,315,0.0,0.0,24,0.00,,,0.00,open2300-1.11,2011-07-06 21:23:00,
2011-07-06 15:33:00,94.8,52.0,29.98,NNW,337,1.8,6.7,24,0.00,,,0.00,open2300-1.11,2011-07-06 21:33:00,
2011-07-06 15:43:00,94.6,50.7,29.97,NW,315,0.0,1.8,23,0.00,,,0.00,open2300-1.11,2011-07-06 21:43:00,
2011-07-06 15:53:00,94.6,49.6,29.97,WSW,247,1.1,1.1,22,0.00,,,0.00,open2300-1.11,2011-07-06 21:53:00,
2011-07-06 16:03:00,94.6,51.8,29.97,NW,315,0.0,1.1,24,0.00,,,0.00,open2300-1.11,2011-07-06 22:03:00,
2011-07-06 16:13:00,94.8,50.8,29.97,NNE,22,0.0,0.0,23,0.00,,,0.00,open2300-1.11,2011-07-06 22:13:00,
2011-07-06 16:22:00,94.8,50.8,29.97,West,270,2.2,4.2,23,0.00,,,0.00,open2300-1.11,2011-07-06 22:22:00,
2011-07-06 16:33:00,94.6,49.6,29.95,NW,315,0.0,2.2,22,0.00,,,0.00,open2300-1.11,2011-07-06 22:33:00,
2011-07-06 16:43:00,94.6,49.6,29.95,WNW,292,0.0,4.5,22,0.00,,,0.00,open2300-1.11,2011-07-06 22:43:00,
2011-07-06 16:53:00,94.6,48.5,29.95,WSW,247,0.0,8.1,21,0.00,,,0.00,open2300-1.11,2011-07-06 22:53:00,
2011-07-06 17:03:00,94.1,48.0,29.95,NW,315,2.9,2.9,21,0.00,,,0.00,open2300-1.11,2011-07-06 23:03:00,
2011-07-06 17:12:00,93.7,47.8,29.94,WSW,247,2.0,2.9,21,0.00,,,0.00,open2300-1.11,2011-07-06 23:12:00,
2011-07-06 17:23:00,93.6,47.6,29.94,West,270,0.0,3.8,21,0.00,,,0.00,open2300-1.11,2011-07-06 23:23:00,
2011-07-06 17:33:00,93.0,47.2,29.94,NNW,337,0.0,0.0,21,0.00,,,0.00,open2300-1.11,2011-07-06 23:33:00,
2011-07-06 17:43:00,92.5,47.8,29.94,NNE,22,0.0,5.4,22,0.00,,,0.00,open2300-1.11,2011-07-06 23:43:00,
2011-07-06 17:53:00,91.8,47.3,29.93,WSW,247,0.0,0.0,22,0.00,,,0.00,open2300-1.11,2011-07-06 23:53:00,
2011-07-06 18:03:00,91.6,47.1,29.93,WSW,247,0.0,0.0,22,0.00,,,0.00,open2300-1.11,2011-07-07 00:03:00,
2011-07-06 18:13:00,91.2,46.8,29.93,WNW,292,0.0,1.6,22,0.00,,,0.00,open2300-1.11,2011-07-07 00:13:00,
2011-07-06 18:23:00,90.9,46.5,29.93,WNW,292,0.0,2.0,22,0.00,,,0.00,open2300-1.11,2011-07-07 00:23:00,
2011-07-06 18:33:00,90.1,47.0,29.93,West,270,0.0,0.0,23,0.00,,,0.00,open2300-1.11,2011-07-07 00:33:00,
2011-07-06 18:43:00,89.4,47.5,29.93,WNW,292,0.0,0.0,24,0.00,,,0.00,open2300-1.11,2011-07-07 00:43:00,
2011-07-06 18:53:00,89.4,48.6,29.93,North,0,0.0,0.0,25,0.00,,,0.00,open2300-1.11,2011-07-07 00:53:00,
2011-07-06 19:03:00,88.9,48.1,29.93,WNW,292,2.0,2.0,25,0.00,,,0.00,open2300-1.11,2011-07-07 01:03:00,
2011-07-06 19:13:00,88.7,49.0,29.93,West,270,0.0,2.0,26,0.00,,,0.00,open2300-1.11,2011-07-07 01:13:00,
2011-07-06 19:23:00,88.7,48.0,29.93,NW,315,0.0,0.0,25,0.00,,,0.00,open2300-1.11,2011-07-07 01:23:00,
2011-07-06 19:33:00,88.3,47.7,29.94,WSW,247,0.0,2.5,25,0.00,,,0.00,open2300-1.11,2011-07-07 01:33:00,
2011-07-06 19:43:00,88.2,48.6,29.94,NW,315,0.0,0.9,26,0.00,,,0.00,open2300-1.11,2011-07-07 01:43:00,
2011-07-06 19:53:00,87.6,48.1,29.93,WNW,292,0.0,0.0,26,0.00,,,0.00,open2300-1.11,2011-07-07 01:53:00,
2011-07-06 20:03:00,87.1,48.7,29.93,NNW,337,0.0,0.7,27,0.00,,,0.00,open2300-1.11,2011-07-07 02:03:00,
2011-07-06 20:13:00,86.7,47.3,29.94,NW,315,0.0,0.0,26,0.00,,,0.00,open2300-1.11,2011-07-07 02:13:00,
2011-07-06 20:23:00,86.4,48.1,29.94,NW,315,0.0,0.0,27,0.00,,,0.00,open2300-1.11,2011-07-07 02:23:00,
2011-07-06 20:33:00,85.6,47.5,29.94,NW,315,0.0,0.0,27,0.00,,,0.00,open2300-1.11,2011-07-07 02:33:00,
2011-07-06 20:43:00,84.9,48.0,29.95,WNW,292,0.0,0.0,28,0.00,,,0.00,open2300-1.11,2011-07-07 02:43:00,
2011-07-06 20:53:00,84.6,46.6,29.95,NW,315,0.0,0.0,27,0.00,,,0.00,open2300-1.11,2011-07-07 02:53:00,
2011-07-06 21:03:00,84.0,46.1,29.96,NW,315,0.0,0.0,27,0.00,,,0.00,open2300-1.11,2011-07-07 03:03:00,
2011-07-06 21:13:00,83.1,47.4,29.96,NW,315,0.0,0.0,29,0.00,,,0.00,open2300-1.11,2011-07-07 03:13:00,
2011-07-06 21:23:00,82.2,47.7,29.96,NW,315,0.0,0.0,30,0.00,,,0.00,open2300-1.11,2011-07-07 03:23:00,
2011-07-06 21:33:00,80.8,48.1,29.96,NW,315,0.0,0.0,32,0.00,,,0.00,open2300-1.11,2011-07-07 03:33:00,
2011-07-06 21:42:00,79.7,47.1,29.95,NW,315,0.0,0.0,32,0.00,,,0.00,open2300-1.11,2011-07-07 03:42:00,
2011-07-06 21:53:00,79.2,47.4,29.96,NW,315,0.0,0.0,33,0.00,,,0.00,open2300-1.11,2011-07-07 03:53:00,
2011-07-06 22:03:00,78.1,48.8,29.96,NW,315,0.0,0.0,36,0.00,,,0.00,open2300-1.11,2011-07-07 04:03:00,
2011-07-06 22:13:00,77.4,47.4,29.97,NW,315,0.0,0.0,35,0.00,,,0.00,open2300-1.11,2011-07-07 04:13:00,
2011-07-06 22:23:00,76.6,48.3,29.97,NW,315,0.0,0.0,37,0.00,,,0.00,open2300-1.11,2011-07-07 04:23:00,
2011-07-06 22:33:00,76.3,48.0,29.97,NW,315,0.0,0.0,37,0.00,,,0.00,open2300-1.11,2011-07-07 04:33:00,